Stations météo

Publicité
Cannes, France (7684): Température de l'air & dewpoint: 13.03.2019 06:00:00 - 19.03.2019 06:00:00 (CET)Cannes, France (7684): Température de l'air 5cm: 13.03.2019 06:00:00 - 19.03.2019 06:00:00 (CET)Cannes, France (7684): Vitesse du vent & gusts: 13.03.2019 06:00:00 - 19.03.2019 06:00:00 (CET)Cannes, France (7684): Direction du vent: 13.03.2019 06:00:00 - 19.03.2019 06:00:00 (CET)Cannes, France (7684): reduced air pressure: 13.03.2019 06:00:00 - 19.03.2019 06:00:00 (CET)Cannes, France (7684): visibility: 13.03.2019 06:00:00 - 19.03.2019 06:00:00 (CET)Cannes, France (7684): Quantités de précipitations: 13.03.2019 06:00:00 - 19.03.2019 06:00:00 (CET)
Date & Time tt [°C] td [°C] tt 5cm [°C] ff [km/h] ff [knt] fx [km/h] fx [knt] dd ppp [hPa] vv [km] rr [mm]
19.03.2019 06:00:00 6,0 1,3 4,2 8 5 14 7 N 1018,0 60 0,0
19.03.2019 05:00:00 6,7 1,6 5,0 8 4 14 7 N 1017,9 60 0,0
19.03.2019 04:00:00 7,1 2,2 5,4 9 5 17 9 NNE 1017,4 60 0,0
19.03.2019 03:00:00 8,2 2,0 6,4 5 3 12 7 N 1017,3 60 0,0
19.03.2019 02:00:00 8,9 2,7 6,8 6 3 9 5 NNE 1017,4 60 0,0
19.03.2019 01:00:00 9,1 2,6 8,0 6 3 13 7 N 1017,3 60 0,0
19.03.2019 00:00:00 9,4 2,9 7,9 3 2 11 6 NNE 1017,3 58 0,0
18.03.2019 23:00:00 10,1 2,9 9,0 7 4 13 7 NNE 1017,1 40 0,0
18.03.2019 22:00:00 10,9 2,5 9,0 5 3 9 5 NNE 1016,8 41 0,0
18.03.2019 21:00:00 11,5 2,5 9,8 4 2 13 7 NNE 1016,2 60 0,0
18.03.2019 20:00:00 11,8 3,0 9,9 7 4 13 7 NNW 1015,6 60 0,0
18.03.2019 19:00:00 13,8 3,0 11,5 5 3 13 7 ESE 1015,4 60 0,0
18.03.2019 18:00:00 14,5 3,6 14,2 8 4 24 13 S 1015,0 60 0,0
18.03.2019 17:00:00 14,9 2,7 16,2 16 9 26 14 S 1014,5 59 0,0
18.03.2019 16:00:00 15,8 2,9 21,5 16 9 29 16 S 1014,1 59 0,0
18.03.2019 15:00:00 15,9 3,0 20,8 21 11 32 17 S 1014,4 60 0,0
18.03.2019 14:00:00 16,8 4,1 19,3 14 8 28 15 SW 1014,5 60 0,0
18.03.2019 13:00:00 15,9 6,6 17,3 11 6 18 10 SW 1014,9 60 0,0
18.03.2019 12:00:00 12,2 8,5 9,8 0 0 10 6 N 1014,9 55 0,0
18.03.2019 11:00:00 9,7 6,6 8,6 6 3 16 9 N 1014,6 40 0,0
18.03.2019 10:00:00 8,1 6,4 6,5 6 3 14 8 S 1014,1 9 2,0
18.03.2019 09:00:00 8,8 1,2 7,5 6 3 13 7 NE 1012,9 60 0,0
18.03.2019 08:00:00 8,5 -1,3 4,5 5 3 12 7 N 1011,7 60 0,0
18.03.2019 07:00:00 8,3 -3,3 3,8 4 2 11 6 N 1010,9 60 0,0
18.03.2019 06:00:00 9,8 -4,6 4,9 4 2 38 21 ESE 1010,0 60 0,0
18.03.2019 05:00:00 12,3 -6,2 9,8 20 11 59 32 NW 1009,1 60 0,0
18.03.2019 04:00:00 12,1 -4,5 10,5 34 18 65 35 NW 1008,7 60 0,0
18.03.2019 03:00:00 11,8 -3,2 8,4 28 15 59 32 WNW 1008,7 60 0,0
18.03.2019 02:00:00 11,3 -0,8 7,8 22 12 54 29 W 1009,2 60 0,0
18.03.2019 01:00:00 11,4 1,6 3,8 19 11 35 19 W 1009,9 60 0,0
18.03.2019 00:00:00 8,4 7,5 4,8 3 1 12 6 NE 1010,4 14 0,0
17.03.2019 23:00:00 9,1 8,2 4,0 4 2 9 5 NNE 1011,1 15 0,0
17.03.2019 22:00:00 9,8 8,6 4,3 3 2 6 3 N 1011,4 16 0,0
17.03.2019 21:00:00 11,1 9,5 5,9 0 0 9 5 N 1011,7 20 0,0
17.03.2019 20:00:00 11,1 9,0 6,7 4 2 9 5 SW 1012,3 19 0,0
17.03.2019 19:00:00 12,4 9,9 11,0 6 3 10 5 S 1012,5 47 0,0
17.03.2019 18:00:00 14,0 10,2 15,0 6 4 13 7 SE 1012,4 54 0,0
17.03.2019 17:00:00 14,1 10,5 15,2 9 5 16 9 SSE 1012,8 55 0,0
17.03.2019 16:00:00 14,3 10,9 16,4 10 6 19 11 S 1013,1 44 0,0
17.03.2019 15:00:00 14,9 10,7 19,2 14 8 22 12 S 1014,0 49 0,0
17.03.2019 14:00:00 15,6 9,9 21,8 13 7 21 12 S 1014,5 47 0,0
17.03.2019 13:00:00 16,5 10,1 24,9 9 5 18 10 S 1015,5 42 0,0
17.03.2019 12:00:00 16,1 10,0 21,1 9 5 18 10 S 1016,2 19 0,0
17.03.2019 11:00:00 15,5 10,0 20,7 8 5 18 10 S 1016,5 51 0,0
17.03.2019 10:00:00 14,8 10,4 15,0 9 5 15 8 S 1016,9 20 0,0
17.03.2019 09:00:00 12,9 9,7 11,5 0 0 10 6 N 1016,7 41 0,0
17.03.2019 08:00:00 11,1 8,5 10,6 5 3 12 7 NNE 1016,5 37 0,0
17.03.2019 07:00:00 10,8 8,6 10,3 6 3 12 6 NNE 1016,2 38 0,0
17.03.2019 06:00:00 10,5 9,1 9,9 4 2 10 5 NNE 1016,3 20 0,0
17.03.2019 05:00:00 10,4 9,5 6,8 4 2 9 5 N 1016,2 14 0,0
17.03.2019 04:00:00 10,9 9,8 5,4 3 2 6 4 NNE 1016,4 15 0,0
17.03.2019 03:00:00 11,9 10,1 11,1 0 0 6 3 N 1016,9 20 0,0
17.03.2019 02:00:00 12,2 10,4 11,4 0 0 6 3 N 1017,6 19 0,0
17.03.2019 01:00:00 12,2 10,3 11,3 3 1 7 4 SSW 1017,6 18 0,0
17.03.2019 00:00:00 13,1 10,8 11,0 0 0 4 2 N 1017,8 14 0,0
16.03.2019 23:00:00 13,2 11,1 11,4 0 0 4 2 N 1018,0 11 0,0
16.03.2019 22:00:00 13,3 11,0 11,7 2 1 4 2 SW 1018,0 16 0,0
16.03.2019 21:00:00 13,4 11,1 12,8 3 2 5 3 SSW 1017,7 17 0,0
16.03.2019 20:00:00 13,7 11,0 13,3 4 2 10 5 S 1017,6 17 0,0
16.03.2019 19:00:00 13,8 11,1 13,7 8 4 15 8 SSW 1017,5 17 0,0
16.03.2019 18:00:00 14,2 10,8 14,8 10 5 19 10 S 1016,9 19 0,0
16.03.2019 17:00:00 14,8 10,4 17,2 13 7 25 13 S 1016,8 19 0,0
16.03.2019 16:00:00 16,0 10,7 22,3 17 9 27 14 S 1016,9 19 0,0
16.03.2019 15:00:00 16,5 10,8 23,2 16 9 26 14 S 1017,0 49 0,0
16.03.2019 14:00:00 16,7 10,3 23,9 15 8 25 14 S 1017,1 19 0,0
16.03.2019 13:00:00 16,5 10,3 24,9 14 7 22 12 S 1017,4 20 0,0
16.03.2019 12:00:00 16,7 11,0 24,0 12 7 23 12 S 1017,8 19 0,0
16.03.2019 11:00:00 16,2 12,2 23,3 11 6 19 10 S 1017,8 15 0,0
16.03.2019 10:00:00 15,5 10,7 17,0 8 4 13 7 S 1017,4 18 0,0
16.03.2019 09:00:00 10,7 7,4 6,9 7 4 14 7 N 1017,2 20 0,0
16.03.2019 08:00:00 6,2 4,8 4,0 7 4 16 9 N 1016,9 49 0,0
16.03.2019 07:00:00 5,2 4,2 3,7 8 4 16 9 NNE 1016,3 42 0,0
16.03.2019 06:00:00 5,7 4,5 4,1 8 4 16 9 NNE 1015,8 40 0,0
16.03.2019 05:00:00 5,9 4,9 3,8 6 4 14 8 N 1015,4 43 0,0
16.03.2019 04:00:00 6,4 5,0 4,8 7 4 18 10 N 1015,5 40 0,0
16.03.2019 03:00:00 7,0 5,9 5,4 7 4 16 9 N 1015,6 34 0,0
16.03.2019 02:00:00 7,0 5,9 5,4 9 5 15 8 NNE 1016,2 20 0,0
16.03.2019 01:00:00 7,1 6,0 5,4 9 5 17 9 NNE 1016,3 18 0,0
16.03.2019 00:00:00 7,1 6,0 5,1 8 4 13 7 N 1016,3 13 0,0
15.03.2019 23:00:00 8,1 6,9 5,9 8 4 14 8 NNE 1016,1 14 0,0
15.03.2019 22:00:00 8,4 7,2 6,1 5 3 13 7 N 1015,7 15 0,0
15.03.2019 21:00:00 9,6 7,9 5,8 6 3 10 6 N 1015,2 17 0,0
15.03.2019 20:00:00 10,8 8,2 7,3 5 3 9 5 N 1014,7 20 0,0
15.03.2019 19:00:00 12,7 9,3 9,8 5 3 17 9 NNW 1014,4 47 0,0
15.03.2019 18:00:00 13,6 9,8 14,1 10 5 21 11 S 1014,0 20 0,0
15.03.2019 17:00:00 14,5 10,1 19,4 18 10 30 16 S 1013,3 20 0,0
15.03.2019 16:00:00 15,5 8,9 19,3 9 5 16 9 SSW 1012,6 55 0,0
15.03.2019 15:00:00 15,7 10,5 18,6 7 4 20 11 SSW 1012,7 20 0,0
15.03.2019 14:00:00 14,3 9,7 18,2 10 6 22 12 S 1013,1 59 0,0
15.03.2019 13:00:00 15,1 6,9 19,4 5 3 11 6 SSE 1012,6 60 0,0
15.03.2019 12:00:00 15,3 7,8 17,8 4 2 8 4 SW 1013,0 44 0,0
15.03.2019 11:00:00 14,2 8,2 15,8 5 3 9 5 SSE 1013,3 59 0,0
15.03.2019 10:00:00 13,4 7,6 15,3 0 0 6 3 N 1013,0 60 0,0
15.03.2019 09:00:00 12,3 5,9 9,1 4 2 12 7 NE 1012,6 58 0,0
15.03.2019 08:00:00 7,8 4,4 4,8 8 4 15 8 NNE 1012,4 44 0,0
15.03.2019 07:00:00 6,1 3,6 4,0 8 5 16 9 NNE 1011,8 56 0,0
15.03.2019 06:00:00 6,2 3,5 4,4 9 5 15 8 NNE 1011,4 60 0,0
15.03.2019 05:00:00 6,4 3,9 4,4 6 3 14 7 N 1011,2 60 0,0
15.03.2019 04:00:00 6,8 3,8 4,9 6 4 14 7 N 1011,1 59 0,0
15.03.2019 03:00:00 7,5 4,4 5,2 7 4 11 6 N 1011,3 59 0,0
15.03.2019 02:00:00 8,7 5,1 4,9 6 3 10 6 N 1011,5 60 0,0
15.03.2019 01:00:00 9,6 5,6 4,7 4 2 7 4 N 1011,3 60 0,0
15.03.2019 00:00:00 10,9 5,6 5,4 0 0 16 9 N 1011,2 60 0,0
14.03.2019 23:00:00 13,6 5,0 11,1 8 4 70 38 SE 1010,6 60 0,0
14.03.2019 22:00:00 16,6 1,5 15,0 37 20 85 46 NW 1009,1 60 0,0
14.03.2019 21:00:00 16,7 1,1 14,8 32 17 58 31 NW 1009,5 60 0,0
14.03.2019 20:00:00 16,8 0,8 15,0 35 19 70 38 NW 1009,2 60 0,0
14.03.2019 19:00:00 16,6 -0,2 15,1 34 19 71 38 WNW 1009,0 60 0,0
14.03.2019 18:00:00 16,7 -1,4 15,5 25 13 54 29 WNW 1009,5 59 0,0
14.03.2019 17:00:00 17,7 -1,1 19,7 28 15 48 26 W 1010,4 49 0,0
14.03.2019 16:00:00 18,9 -1,6 21,5 29 16 56 30 W 1010,8 54 0,0
14.03.2019 15:00:00 19,6 -1,5 23,6 26 14 48 26 W 1011,4 20 0,0
14.03.2019 14:00:00 17,9 -1,4 24,6 16 8 22 12 SSE 1012,5 20 0,0
14.03.2019 13:00:00 17,4 -0,8 24,6 13 7 20 11 S 1014,2 60 0,0
14.03.2019 12:00:00 17,0 1,8 23,4 9 5 18 10 SSE 1015,0 20 0,0
14.03.2019 11:00:00 17,5 -0,8 24,2 4 2 16 9 S 1015,7 60 0,0
14.03.2019 10:00:00 15,1 -1,5 19,3 3 1 9 5 ENE 1016,2 60 0,0
14.03.2019 09:00:00 11,0 -1,4 4,8 3 2 11 6 NNE 1016,7 44 0,0
14.03.2019 08:00:00 5,1 -1,8 -1,7 7 4 11 6 N 1016,6 20 0,0
14.03.2019 07:00:00 3,0 -2,9 -2,0 0 0 11 6 N 1016,2 60 0,0
14.03.2019 06:00:00 3,2 -3,2 -2,6 4 2 9 5 NNW 1016,2 60 0,0
14.03.2019 05:00:00 3,9 -3,4 -2,4 0 0 10 5 N 1015,9 60 0,0
14.03.2019 04:00:00 4,2 -3,3 -1,6 4 2 10 5 N 1016,0 60 0,0
14.03.2019 03:00:00 5,6 -4,0 -1,4 5 3 8 4 N 1016,5 60 0,0
14.03.2019 02:00:00 7,2 -4,9 -0,5 3 2 10 5 SE 1016,4 60 0,0
14.03.2019 01:00:00 10,9 -6,9 5,5 4 2 39 21 E 1015,8 60 0,0
14.03.2019 00:00:00 11,8 -6,2 4,3 15 8 27 15 NNW 1015,4 60 0,0
13.03.2019 23:00:00 9,3 -4,7 0,8 6 3 19 10 WNW 1015,2 52 0,0
13.03.2019 22:00:00 6,8 3,6 0,8 2 1 13 7 NE 1014,5 20 0,0
13.03.2019 21:00:00 8,5 3,3 4,3 6 4 11 6 N 1013,8 40 0,0
13.03.2019 20:00:00 9,9 4,9 3,4 6 3 10 6 N 1013,1 38 0,0
13.03.2019 19:00:00 12,4 5,8 5,7 0 0 15 8 N 1012,4 59 0,0
13.03.2019 18:00:00 14,5 4,8 13,6 8 5 46 25 E 1011,2 60 0,0
13.03.2019 17:00:00 17,1 -9,0 19,3 19 10 49 26 NW 1009,5 56 0,0
13.03.2019 16:00:00 18,2 -9,8 21,5 21 11 49 26 NW 1009,4 51 0,0
13.03.2019 15:00:00 16,6 5,2 22,7 9 5 48 26 SSE 1009,8 55 0,0
13.03.2019 14:00:00 18,6 4,4 23,3 9 5 47 26 SE 1009,8 53 0,0
13.03.2019 13:00:00 19,1 -9,1 22,8 25 14 57 31 NW 1010,0 36 0,0
13.03.2019 12:00:00 18,9 -7,5 20,5 32 17 59 32 NW 1010,1 43 0,0
13.03.2019 11:00:00 16,8 -0,9 17,3 29 15 51 28 WNW 1010,7 58 0,0
13.03.2019 10:00:00 14,1 2,3 10,7 31 17 54 29 W 1011,8 19 0,0
13.03.2019 09:00:00 11,3 1,8 9,2 12 7 33 18 S 1012,1 60 0,0
13.03.2019 08:00:00 9,9 2,5 6,0 5 3 21 11 ESE 1012,8 51 0,0
13.03.2019 07:00:00 7,9 1,9 2,8 6 3 12 6 ENE 1013,4 19 0,0
13.03.2019 06:00:00 5,7 1,8 3,4 3 2 10 6 WSW 1014,0 51 0,0

tt = Température de l'air
td = dewpoint
tt 5cm = Température de l'air 5cm
ff = Vitesse du vent
fx = gusts
dd = Direction du vent
ppp = reduced air pressure
vv = visibility
rr = Quantités de précipitations

stations d'obs. à proximité